Zurück zum Katalog

COSMOS 886 DEB

AktivUNKNOWN
NORAD 14503·DEBRIS·🇷🇺 Russia

Gestartet Dec 27, 1976 von Baikonur Cosmodrome

Loading…

Nächste Überflüge (nächste 24 Stunden)

TLE

AktuellSource: Space-Track

Epoche: Sep 14, 2026, 06:04 UTC

1 14503U 76126BQ  26257.25337375 -.00000088  00000-0 -45898-4 0  9998
2 14503  65.8547 209.8815 1004347 208.5126 145.7237 12.32300815584388

Verfolge COSMOS 886 DEB in Echtzeit mit AllMySat

Download on the App Store